Muscle Shoals, AL

6:23 AM CST on December 17, 2017 (GMT -0600)
Northwest Alabama Regional

Weather History for KMSL - May, 2013

Change the Weather History Date:

Thursday, May 2, 2013

  Actual Average Record
Temperature  
Mean Temperature 68 °F 66 °F  
Max Temperature 74 °F 78 °F 92 °F (1901)
Min Temperature 62 °F 55 °F 32 °F (1909)
Degree Days  
Heating Degree Days 0 2  
Month to date heating degree days 0 4  
Since 1 July heating degree days 2899 3077  
Cooling Degree Days 3 3  
Month to date cooling degree days 9 6  
Year to date cooling degree days 63 71  
Growing Degree Days 18 (Base 50)    
Moisture  
Dew Point 57 °F    
Average Humidity 71    
Maximum Humidity 84    
Minimum Humidity 58    
Precipitation  
Precipitation 0.00 in 0.16 in 2.56 in (2010)
Month to date precipitation 0.00 0.31  
Year to date precipitation 20.77 18.69  
Snow  
Snow 0.00 in - - ()
Month to date snowfall 0.0  
Since 1 July snowfall T  
Snow Depth 0.00 in    
Sea Level Pressure  
Sea Level Pressure 30.10 in    
Wind  
Wind Speed 8 mph (ESE)    
Max Wind Speed 17 mph    
Max Gust Speed 22 mph    
Visibility 10 miles    
Events      
T = Trace of Precipitation, MM = Missing Value Source: NWS Daily Summary

Daily Weather History Graph

Daily Weather History Graph

Search for Another Location

Airport or City:

Trip Planner

Search our weather history database for the weather conditions in past years. The results will help you decide how hot, cold, wet, or windy it might be!

Date:

Astronomy

May. 02, 2013 Rise Set
Actual Time 5:58 AM CDT 7:36 PM CDT
Civil Twilight 5:31 AM CDT 8:03 PM CDT
Nautical Twilight 4:59 AM CDT 8:36 PM CDT
Astronomical Twilight 4:24 AM CDT 9:10 PM CDT
Moon 1:27 AM CDT (5/2) 12:42 PM CDT (5/2)
Length of Visible Light 14h 31m
Length of Day
13h 37m
Waning Gibbous, 47% of the Moon is Illuminated
May 2
Waning Gibbous
May 9
New
May 17
First Quarter
May 24
Full
May 31
Last Quarter

Hourly Weather History & Observations

Time (CDT) Temp. Dew Point Humidity Pressure Visibility Wind Dir Wind Speed Gust Speed Precip Events Conditions
12:53 AM 66.0 °F 53.1 °F 63% 30.08 in 10.0 mi ESE 8.1 mph - N/A   Clear
1:53 AM 66.0 °F 52.0 °F 60% 30.07 in 10.0 mi ESE 9.2 mph - N/A   Clear
2:53 AM 64.9 °F 52.0 °F 63% 30.08 in 10.0 mi ESE 8.1 mph - N/A   Clear
3:53 AM 64.9 °F 53.1 °F 65% 30.08 in 10.0 mi ESE 6.9 mph - N/A   Overcast
4:53 AM 63.0 °F 53.1 °F 70% 30.07 in 10.0 mi East 6.9 mph - N/A   Mostly Cloudy
5:53 AM 63.0 °F 53.1 °F 70% 30.08 in 10.0 mi ESE 5.8 mph - N/A   Mostly Cloudy
6:53 AM 63.0 °F 53.1 °F 70% 30.10 in 10.0 mi ESE 5.8 mph - N/A   Mostly Cloudy
7:53 AM 64.0 °F 54.0 °F 70% 30.13 in 10.0 mi ESE 6.9 mph - N/A   Overcast
8:53 AM 64.9 °F 55.0 °F 70% 30.13 in 10.0 mi ESE 9.2 mph - N/A   Mostly Cloudy
9:53 AM 69.1 °F 57.0 °F 65% 30.13 in 10.0 mi ESE 11.5 mph - N/A   Partly Cloudy
10:23 AM 69.8 °F 57.2 °F 64% 30.14 in 10.0 mi ESE 11.5 mph - N/A   Mostly Cloudy
10:53 AM 70.0 °F 57.0 °F 63% 30.14 in 10.0 mi ESE 13.8 mph 18.4 mph N/A   Overcast
11:53 AM 70.0 °F 57.9 °F 65% 30.14 in 10.0 mi ESE 10.4 mph - N/A   Overcast
12:51 PM 71.6 °F 57.2 °F 60% 30.13 in 10.0 mi ESE 11.5 mph - N/A   Overcast
12:53 PM 71.1 °F 57.9 °F 63% 30.12 in 10.0 mi ESE 11.5 mph - N/A   Overcast
1:37 PM 71.6 °F 57.2 °F 60% 30.12 in 10.0 mi ESE 13.8 mph 20.7 mph N/A   Overcast
1:53 PM 72.0 °F 57.9 °F 61% 30.11 in 10.0 mi ESE 12.7 mph - N/A   Overcast
2:04 PM 73.4 °F 59.0 °F 61% 30.12 in 10.0 mi ESE 9.2 mph 17.3 mph N/A   Overcast
2:53 PM 72.0 °F 59.0 °F 64% 30.09 in 10.0 mi SE 13.8 mph - N/A   Overcast
3:49 PM 69.8 °F 59.0 °F 68% 30.10 in 10.0 mi ESE 13.8 mph 20.7 mph N/A   Overcast
3:53 PM 70.0 °F 57.9 °F 65% 30.08 in 10.0 mi East 12.7 mph 20.7 mph N/A   Overcast
4:53 PM 70.0 °F 57.9 °F 65% 30.08 in 10.0 mi East 10.4 mph - N/A   Overcast
5:23 PM 69.8 °F 59.0 °F 68% 30.09 in 8.0 mi SE 10.4 mph - N/A   Mostly Cloudy
5:53 PM 68.0 °F 60.1 °F 76% 30.08 in 10.0 mi SE 5.8 mph - N/A   Overcast
6:53 PM 68.0 °F 59.0 °F 73% 30.07 in 10.0 mi Calm Calm - N/A   Overcast
7:53 PM 66.9 °F 59.0 °F 76% 30.07 in 10.0 mi Calm Calm - N/A   Overcast
8:53 PM 66.0 °F 57.9 °F 75% 30.07 in 10.0 mi East 8.1 mph - N/A   Overcast
9:53 PM 64.0 °F 57.0 °F 78% 30.07 in 10.0 mi ESE 6.9 mph - N/A   Clear
10:53 PM 63.0 °F 57.0 °F 81% 30.06 in 10.0 mi East 5.8 mph - N/A   Partly Cloudy
11:53 PM 63.0 °F 57.0 °F 81% 30.06 in 10.0 mi ESE 6.9 mph - N/A   Partly Cloudy